Погода в Чжэнчжоу

Китай     34°46′18″N   113°39′02″E
темп.,
°C
ветер,
м/с
пор.,
м/с
влажн.,
%
обл.,
%
осадки,
мм/ч
давл.,
гПа
погр.,
м
23 апреля, пт
пт2323:00+16юв1174100 0.0 101419
02:00+14всв228098 0.0 101437
05:00+13всв2676100 0.0 1015213
08:00+14всв4870100 0.0 1016489
11:00+19св4553100 0.0 10171021
14:00+22св4545100 0.0 10151331
17:00+21всв5746100 0.0 10141082
20:00+19вюв0259100 0.2 1016109
24 апреля, сб
сб2423:00+17св61263100 0.1 1018898
02:00+13св61271100 0.1 1020993
05:00+13св61269100 0.0 10201351
08:00+13ссв71373100 0.1 10221132
11:00+13ссв71373100 0.0 10231119
14:00+15св61267100 0.0 10221400
17:00+16ссв61161100 0.0 10211330
20:00+16ссв51162100 0.0 10231113
25 апреля, вс
вс2523:00+15ссв41164100 0.0 10241204
02:00+14ссв51166100 0.0 10221058
05:00+14ссв4968100 0.0 10221022
08:00+13св4871100 0.1 1024924
11:00+12ссв4983100 0.3 1025783
14:00+12ссв4785100 0.4 1022723
17:00+13ссв4782100 0.0 1021628
20:00+12ссв3682100 0.1 1022371
26 апреля, пн
пн2623:00+13ссз1381100 0.1 1023236
02:00+12сз1381100 0.1 1020198
05:00+12в2383100 0.0 1018125
08:00+13зсз1277100 0.0 1019307
11:00+19зсз12510 0.0 1017992
14:00+24сз1338100 0.0 10141637
17:00+24ююв1238100 0.0 10131636
20:00+19юв3756100 0.0 1015217
27 апреля, вт
вт2723:00+17ю39668 0.0 1015277
02:00+16зюз37717 0.0 1015156
05:00+16зсз236782 0.0 101472
08:00+19зсз395392 0.0 1016368
11:00+26сз351597 0.0 10171547
14:00+29сз67998 0.0 10142989
17:00+28сз571286 0.0 10142604
20:00+24зсз5101399 0.0 1016643